| time (UTC) | temp F | wind direction | speed MPH | gust MPH | rain 1hr in | rain 24hr in | rain mn in | humidity % | barometer mb |
| 20260504204746 | 58 | 56 | 14.0 | 23.0 | 0.00 | 0.00 | 0.00 | 71 | 1008.9 |
| 20260504204246 | 56 | 52 | 9.0 | 18.0 | 0.00 | 0.00 | 0.00 | 76 | 1009.0 |
| 20260504203745 | 56 | 52 | 10.0 | 14.0 | 0.00 | 0.00 | 0.00 | 77 | 1008.9 |
| 20260504203245 | 56 | 57 | 12.0 | 17.0 | 0.00 | 0.00 | 0.00 | 76 | 1009.0 |
| 20260504202746 | 56 | 49 | 13.0 | 17.0 | 0.00 | 0.00 | 0.00 | 75 | 1009.0 |
| 20260504202247 | 57 | 59 | 14.0 | 17.0 | 0.00 | 0.00 | 0.00 | 75 | 1009.0 |
| 20260504202008 | 57 | 52 | 14.0 | 17.0 | 0.00 | 0.00 | 0.00 | 74 | 1009.0 |
| 20260504201242 | 57 | 46 | 14.0 | 17.0 | 0.00 | 0.00 | 0.00 | 75 | 1009.0 |
| 20260504200742 | 57 | 67 | 14.0 | 17.0 | 0.00 | 0.00 | 0.00 | 74 | 1009.0 |
| 20260504200243 | 57 | 62 | 16.0 | 20.0 | 0.00 | 0.00 | 0.00 | 74 | 1009.0 |
| 20260504195739 | 57 | 74 | 18.0 | 20.0 | 0.00 | 0.00 | 0.00 | 72 | 1009.1 |
| 20260504195238 | 57 | 64 | 17.0 | 20.0 | 0.00 | 0.00 | 0.00 | 72 | 1009.1 |
| 20260504194738 | 57 | 70 | 17.0 | 21.0 | 0.00 | 0.00 | 0.00 | 72 | 1009.1 |
| 20260504194237 | 57 | 63 | 16.0 | 21.0 | 0.00 | 0.00 | 0.00 | 71 | 1009.2 |
| 20260504193736 | 57 | 63 | 15.0 | 19.0 | 0.00 | 0.00 | 0.00 | 73 | 1009.1 |
| 20260504193234 | 57 | 73 | 17.0 | 19.0 | 0.00 | 0.00 | 0.00 | 72 | 1009.2 |
| 20260504192736 | 57 | 57 | 17.0 | 19.0 | 0.00 | 0.00 | 0.00 | 73 | 1009.2 |
| 20260504192235 | 56 | 63 | 17.0 | 19.0 | 0.00 | 0.00 | 0.00 | 74 | 1009.2 |
| 20260504191950 | 56 | 65 | 16.0 | 19.0 | 0.00 | 0.00 | 0.00 | 74 | 1009.3 |
| 20260504191234 | 56 | 64 | 15.0 | 18.0 | 0.00 | 0.00 | 0.00 | 74 | 1009.3 |
| 20260504190733 | 56 | 62 | 15.0 | 18.0 | 0.00 | 0.00 | 0.00 | 74 | 1009.4 |
| 20260504190543 | 56 | 62 | 14.0 | 17.0 | 0.00 | 0.00 | 0.00 | 75 | 1009.4 |
| 20260504185226 | 56 | 64 | 12.0 | 17.0 | 0.00 | 0.00 | 0.00 | 76 | 1009.4 |
| 20260504184720 | 56 | 63 | 12.0 | 15.0 | 0.00 | 0.00 | 0.00 | 75 | 1009.5 |
| 20260504184214 | 56 | 53 | 13.0 | 16.0 | 0.00 | 0.00 | 0.00 | 75 | 1009.6 |
| 20260504183708 | 56 | 61 | 14.0 | 16.0 | 0.00 | 0.00 | 0.00 | 74 | 1009.8 |
| 20260504183202 | 56 | 74 | 14.0 | 16.0 | 0.00 | 0.00 | 0.00 | 73 | 1009.8 |
| 20260504182656 | 56 | 68 | 12.0 | 15.0 | 0.00 | 0.00 | 0.00 | 74 | 1009.9 |
| 20260504182150 | 55 | 63 | 11.0 | 14.0 | 0.00 | 0.00 | 0.00 | 77 | 1010.0 |
| 20260504181645 | 55 | 71 | 11.0 | 14.0 | 0.00 | 0.00 | 0.00 | 76 | 1009.9 |
| 20260504181140 | 55 | 61 | 11.0 | 13.0 | 0.00 | 0.00 | 0.00 | 77 | 1010.0 |
| 20260504180633 | 55 | 63 | 11.0 | 15.0 | 0.00 | 0.00 | 0.00 | 76 | 1010.1 |
| 20260504180347 | 56 | 82 | 11.0 | 15.0 | 0.00 | 0.00 | 0.00 | 74 | 1010.1 |
| 20260504175621 | 56 | 75 | 11.0 | 16.0 | 0.00 | 0.00 | 0.00 | 72 | 1010.1 |
| 20260504175115 | 57 | 58 | 10.0 | 16.0 | 0.00 | 0.00 | 0.00 | 71 | 1010.2 |
| 20260504174609 | 57 | 77 | 11.0 | 16.0 | 0.00 | 0.00 | 0.00 | 69 | 1010.3 |
| 20260504174336 | 57 | 69 | 10.0 | 16.0 | 0.00 | 0.00 | 0.00 | 71 | 1010.3 |
| 20260504173556 | 57 | 81 | 9.0 | 15.0 | 0.00 | 0.00 | 0.00 | 71 | 1010.4 |
| 20260504173052 | 57 | 74 | 10.0 | 15.0 | 0.00 | 0.00 | 0.00 | 71 | 1010.4 |
| 20260504172543 | 57 | 103 | 11.0 | 16.0 | 0.00 | 0.00 | 0.00 | 71 | 1010.4 |
| 20260504172038 | 57 | 98 | 12.0 | 17.0 | 0.00 | 0.00 | 0.00 | 68 | 1010.4 |
| 20260504171532 | 57 | 88 | 12.0 | 18.0 | 0.00 | 0.00 | 0.00 | 68 | 1010.5 |
| 20260504171027 | 57 | 69 | 12.0 | 18.0 | 0.00 | 0.00 | 0.00 | 69 | 1010.5 |
| 20260504170520 | 57 | 80 | 12.0 | 18.0 | 0.00 | 0.00 | 0.00 | 68 | 1010.5 |
| 20260504170238 | 56 | 89 | 11.0 | 16.0 | 0.00 | 0.00 | 0.00 | 70 | 1010.5 |
| 20260504160421 | 59 | 51 | 11.0 | 19.0 | 0.00 | 0.00 | 0.00 | 60 | 1011.4 |
| 20260504151133 | 56 | 109 | 9.0 | 18.0 | 0.00 | 0.00 | 0.00 | 68 | 1012.0 |
| 20260504150415 | 56 | 98 | 10.0 | 18.0 | 0.00 | 0.00 | 0.00 | 67 | 1012.0 |
| 20260504140909 | 56 | 104 | 13.0 | 24.0 | 0.00 | 0.00 | 0.00 | 58 | 1012.3 |
| 20260504140409 | 56 | 115 | 12.0 | 24.0 | 0.00 | 0.00 | 0.00 | 58 | 1012.3 |
| 20260504130410 | 54 | 93 | 8.0 | 17.0 | 0.00 | 0.00 | 0.00 | 72 | 1012.6 |
| 20260504110401 | 50 | 99 | 2.0 | 7.0 | 0.00 | 0.00 | 0.00 | 78 | 1012.6 |
| 20260504100334 | 47 | 111 | 1.0 | 4.0 | 0.00 | 0.00 | 0.00 | 74 | 1012.4 |
| 20260504090135 | 42 | 114 | 1.0 | 3.0 | 0.00 | 0.00 | 0.00 | 84 | 1012.1 |
| 20260504081548 | 42 | 150 | 1.0 | 3.0 | 0.00 | 0.00 | 0.00 | 81 | 1011.7 |
| 20260504081050 | 42 | 148 | 1.0 | 2.0 | 0.00 | 0.00 | 0.00 | 83 | 1011.7 |
| 20260504080548 | 42 | 148 | 1.0 | 2.0 | 0.00 | 0.00 | 0.00 | 85 | 1011.7 |
| 20260504050538 | 41 | 155 | 4.0 | 6.0 | 0.00 | 0.00 | 0.00 | 76 | 1011.3 |
| 20260504045537 | 41 | 145 | 1.0 | 4.0 | 0.00 | 0.00 | 0.00 | 75 | 1011.2 |
| 20260504045036 | 41 | 142 | 1.0 | 2.0 | 0.00 | 0.00 | 0.00 | 75 | 1011.3 |
| 20260504044537 | 42 | 142 | 1.0 | 2.0 | 0.00 | 0.00 | 0.00 | 75 | 1011.3 |
| 20260504044035 | 42 | 151 | 1.0 | 3.0 | 0.00 | 0.00 | 0.00 | 75 | 1011.3 |
| 20260504043531 | 42 | 152 | 2.0 | 4.0 | 0.00 | 0.00 | 0.00 | 74 | 1011.4 |
| 20260504043031 | 42 | 148 | 2.0 | 4.0 | 0.00 | 0.00 | 0.00 | 73 | 1011.4 |
| 20260504042529 | 42 | 143 | 1.0 | 4.0 | 0.00 | 0.00 | 0.00 | 72 | 1011.4 |
| 20260504042248 | 42 | 142 | 1.0 | 4.0 | 0.00 | 0.00 | 0.00 | 72 | 1011.3 |
| 20260504041522 | 42 | 142 | 1.0 | 4.0 | 0.00 | 0.00 | 0.00 | 71 | 1011.3 |
| 20260504041016 | 42 | 142 | 2.0 | 4.0 | 0.00 | 0.00 | 0.00 | 70 | 1011.3 |
| 20260504040510 | 43 | 154 | 3.0 | 5.0 | 0.00 | 0.00 | 0.00 | 68 | 1011.2 |
| 20260504040443 | 43 | 152 | 4.0 | 5.0 | 0.00 | 0.00 | 0.00 | 68 | 1011.2 |
| 20260504035721 | 43 | 155 | 4.0 | 5.0 | 0.00 | 0.00 | 0.00 | 67 | 1011.0 |
| 20260504034953 | 44 | 147 | 3.0 | 5.0 | 0.00 | 0.00 | 0.00 | 67 | 1011.0 |
| 20260504034447 | 44 | 161 | 2.0 | 5.0 | 0.00 | 0.00 | 0.00 | 68 | 1011.0 |
| 20260504033940 | 44 | 157 | 1.0 | 3.0 | 0.00 | 0.00 | 0.00 | 67 | 1011.0 |
| 20260504033703 | 44 | 152 | 0.0 | 1.0 | 0.00 | 0.00 | 0.00 | 69 | 1011.0 |
| 20260504033154 | 43 | 152 | 1.0 | 3.0 | 0.00 | 0.00 | 0.00 | 67 | 1011.1 |
| 20260504032423 | 43 | 152 | 2.0 | 3.0 | 0.00 | 0.00 | 0.00 | 67 | 1011.1 |
| 20260504032143 | 44 | 148 | 2.0 | 4.0 | 0.00 | 0.00 | 0.00 | 66 | 1011.1 |
| 20260504031412 | 44 | 164 | 1.0 | 4.0 | 0.00 | 0.00 | 0.00 | 65 | 1011.0 |
| 20260504030905 | 44 | 143 | 0.0 | 3.0 | 0.00 | 0.00 | 0.00 | 67 | 1011.0 |
| 20260504030359 | 43 | 143 | 1.0 | 3.0 | 0.00 | 0.00 | 0.00 | 67 | 1011.0 |
| 20260504025854 | 44 | 143 | 2.0 | 3.0 | 0.00 | 0.00 | 0.00 | 66 | 1011.0 |
| 20260504025347 | 44 | 142 | 2.0 | 3.0 | 0.00 | 0.00 | 0.00 | 65 | 1011.0 |
| 20260504024841 | 44 | 146 | 1.0 | 3.0 | 0.00 | 0.00 | 0.00 | 66 | 1011.0 |
| 20260504024337 | 44 | 145 | 1.0 | 3.0 | 0.00 | 0.00 | 0.00 | 68 | 1011.0 |
| 20260504023829 | 44 | 145 | 1.0 | 3.0 | 0.00 | 0.00 | 0.00 | 67 | 1011.0 |
| 20260504023323 | 45 | 144 | 1.0 | 3.0 | 0.00 | 0.00 | 0.00 | 67 | 1011.0 |
| 20260504022817 | 45 | 143 | 1.0 | 2.0 | 0.00 | 0.00 | 0.00 | 65 | 1011.0 |
| 20260504022311 | 46 | 143 | 0.0 | 1.0 | 0.00 | 0.00 | 0.00 | 63 | 1011.0 |
| 20260504021806 | 47 | 143 | 0.0 | 1.0 | 0.00 | 0.00 | 0.00 | 60 | 1011.0 |
| 20260504021259 | 47 | 143 | 0.0 | 2.0 | 0.00 | 0.00 | 0.00 | 58 | 1011.0 |
| 20260504020753 | 47 | 143 | 1.0 | 2.0 | 0.00 | 0.00 | 0.00 | 59 | 1011.0 |
| 20260504020723 | 47 | 143 | 1.0 | 2.0 | 0.00 | 0.00 | 0.00 | 57 | 1011.0 |
| 20260504015741 | 47 | 143 | 1.0 | 3.0 | 0.00 | 0.00 | 0.00 | 60 | 1010.9 |
| 20260504015731 | 47 | 143 | 1.0 | 3.0 | 0.00 | 0.00 | 0.00 | 61 | 1010.9 |
| 20260504014729 | 47 | 143 | 1.0 | 3.0 | 0.00 | 0.00 | 0.00 | 58 | 1010.9 |
| 20260504014450 | 47 | 144 | 1.0 | 3.0 | 0.00 | 0.00 | 0.00 | 60 | 1010.8 |
| 20260504013942 | 48 | 134 | 1.0 | 3.0 | 0.00 | 0.00 | 0.00 | 60 | 1010.8 |
| 20260504013211 | 48 | 124 | 0.0 | 2.0 | 0.00 | 0.00 | 0.00 | 56 | 1010.6 |
| 20260504012704 | 49 | 124 | 0.0 | 2.0 | 0.00 | 0.00 | 0.00 | 54 | 1010.6 |
| 20260504012159 | 50 | 124 | 0.0 | 2.0 | 0.00 | 0.00 | 0.00 | 49 | 1010.5 |
| 20260504011653 | 50 | 124 | 1.0 | 2.0 | 0.00 | 0.00 | 0.00 | 47 | 1010.4 |
| 20260504011148 | 49 | 124 | 2.0 | 2.0 | 0.00 | 0.00 | 0.00 | 50 | 1010.4 |
| 20260504010641 | 50 | 124 | 1.0 | 2.0 | 0.00 | 0.00 | 0.00 | 49 | 1010.3 |
| 20260504010135 | 50 | 123 | 1.0 | 1.0 | 0.00 | 0.00 | 0.00 | 50 | 1010.2 |
| 20260504005629 | 49 | 123 | 1.0 | 1.0 | 0.00 | 0.00 | 0.00 | 52 | 1010.1 |
| 20260504005123 | 50 | 124 | 1.0 | 1.0 | 0.00 | 0.00 | 0.00 | 51 | 1010.1 |
| 20260504004618 | 51 | 123 | 0.0 | 1.0 | 0.00 | 0.00 | 0.00 | 48 | 1010.0 |
| 20260504004111 | 51 | 123 | 0.0 | 1.0 | 0.00 | 0.00 | 0.00 | 46 | 1009.9 |
| 20260504003604 | 51 | 123 | 0.0 | 1.0 | 0.00 | 0.00 | 0.00 | 46 | 1010.0 |
| 20260504003059 | 51 | 124 | 0.0 | 1.0 | 0.00 | 0.00 | 0.00 | 44 | 1009.8 |
| 20260504002553 | 52 | 123 | 0.0 | 1.0 | 0.00 | 0.00 | 0.00 | 45 | 1009.8 |
| 20260504002053 | 53 | 123 | 0.0 | 1.0 | 0.00 | 0.00 | 0.00 | 45 | 1009.8 |
| 20260504001811 | 53 | 124 | 0.0 | 1.0 | 0.00 | 0.00 | 0.00 | 39 | 1009.7 |
| 20260504001053 | 53 | 130 | 0.0 | 1.0 | 0.00 | 0.00 | 0.00 | 39 | 1009.5 |
| 20260504000552 | 53 | 130 | 0.0 | 1.0 | 0.00 | 0.00 | 0.00 | 42 | 1009.5 |
| 20260504000053 | 54 | 130 | 0.0 | 1.0 | 0.00 | 0.00 | 0.00 | 38 | 1009.4 |
| 20260503235824 | 55 | 130 | 0.0 | 1.0 | 0.00 | 0.00 | 0.00 | 36 | 1009.3 |
| 20260503235053 | 55 | 130 | 1.0 | 4.0 | 0.00 | 0.00 | 0.00 | 35 | 1009.3 |
| 20260503234551 | 55 | 130 | 2.0 | 9.0 | 0.00 | 0.00 | 0.00 | 35 | 1009.2 |
| 20260503234049 | 56 | 130 | 2.0 | 9.0 | 0.00 | 0.00 | 0.00 | 35 | 1009.2 |
| 20260503233549 | 56 | 129 | 2.0 | 9.0 | 0.00 | 0.00 | 0.00 | 34 | 1009.2 |
| 20260503233049 | 56 | 132 | 3.0 | 9.0 | 0.00 | 0.00 | 0.00 | 33 | 1009.1 |
| 20260503232547 | 56 | 150 | 4.0 | 11.0 | 0.00 | 0.00 | 0.00 | 33 | 1009.1 |
| 20260503232049 | 56 | 173 | 3.0 | 13.0 | 0.00 | 0.00 | 0.00 | 34 | 1009.0 |
| 20260503231548 | 56 | 88 | 2.0 | 13.0 | 0.00 | 0.00 | 0.00 | 32 | 1009.1 |
| 20260503231047 | 56 | 122 | 3.0 | 10.0 | 0.00 | 0.00 | 0.00 | 34 | 1009.1 |
| 20260503230549 | 56 | 148 | 3.0 | 10.0 | 0.00 | 0.00 | 0.00 | 34 | 1009.0 |
| 20260503230043 | 57 | 129 | 3.0 | 11.0 | 0.00 | 0.00 | 0.00 | 34 | 1009.0 |
| 20260503225536 | 57 | 136 | 3.0 | 16.0 | 0.00 | 0.00 | 0.00 | 34 | 1009.0 |
| 20260503225036 | 57 | 125 | 4.0 | 16.0 | 0.00 | 0.00 | 0.00 | 34 | 1009.0 |
| 20260503224536 | 57 | 122 | 6.0 | 17.0 | 0.00 | 0.00 | 0.00 | 33 | 1009.0 |
| 20260503224035 | 57 | 108 | 6.0 | 17.0 | 0.00 | 0.00 | 0.00 | 33 | 1008.9 |
| 20260503223536 | 57 | 131 | 4.0 | 11.0 | 0.00 | 0.00 | 0.00 | 33 | 1009.0 |
| 20260503223036 | 57 | 76 | 4.0 | 11.0 | 0.00 | 0.00 | 0.00 | 34 | 1009.0 |
| 20260503222754 | 57 | 124 | 4.0 | 11.0 | 0.00 | 0.00 | 0.00 | 33 | 1008.8 |
| 20260503222036 | 58 | 173 | 5.0 | 12.0 | 0.00 | 0.00 | 0.00 | 33 | 1008.8 |
| 20260503221536 | 58 | 128 | 5.0 | 12.0 | 0.00 | 0.00 | 0.00 | 33 | 1008.8 |
| 20260503221038 | 57 | 152 | 6.0 | 18.0 | 0.00 | 0.00 | 0.00 | 33 | 1008.8 |
| 20260503220536 | 57 | 104 | 6.0 | 18.0 | 0.00 | 0.00 | 0.00 | 33 | 1008.8 |
| 20260503220036 | 57 | 134 | 6.0 | 18.0 | 0.00 | 0.00 | 0.00 | 33 | 1008.9 |
| 20260503215802 | 57 | 71 | 7.0 | 18.0 | 0.00 | 0.00 | 0.00 | 33 | 1008.8 |
| 20260503215036 | 57 | 162 | 8.0 | 20.0 | 0.00 | 0.00 | 0.00 | 33 | 1008.8 |
| 20260503214537 | 57 | 144 | 7.0 | 20.0 | 0.00 | 0.00 | 0.00 | 33 | 1008.7 |
| 20260503214037 | 58 | 139 | 6.0 | 20.0 | 0.00 | 0.00 | 0.00 | 34 | 1008.7 |
| 20260503213536 | 58 | 163 | 7.0 | 20.0 | 0.00 | 0.00 | 0.00 | 34 | 1008.6 |
| 20260503213037 | 58 | 167 | 6.0 | 20.0 | 0.00 | 0.00 | 0.00 | 32 | 1008.5 |
| 20260503212756 | 58 | 141 | 6.0 | 20.0 | 0.00 | 0.00 | 0.00 | 34 | 1008.5 |
| 20260503212036 | 57 | 143 | 10.0 | 22.0 | 0.00 | 0.00 | 0.00 | 35 | 1008.6 |
| 20260503211537 | 56 | 201 | 9.0 | 22.0 | 0.00 | 0.00 | 0.00 | 34 | 1008.6 |
| 20260503211532 | 57 | 160 | 6.0 | 22.0 | 0.00 | 0.00 | 0.00 | 34 | 1008.6 |
| 20260503210754 | 56 | 122 | 8.0 | 21.0 | 0.00 | 0.00 | 0.00 | 34 | 1008.6 |
| 20260503210035 | 56 | 304 | 9.0 | 21.0 | 0.00 | 0.00 | 0.00 | 34 | 1008.5 |
| 20260503205535 | 56 | 0 | 9.0 | 20.0 | 0.00 | 0.00 | 0.00 | 34 | 1008.5 |